This demonstration page uses our WeatherBlox Daily Observations layout. Learn more.

Left ArrowRight Arrow

47.50024, -111.30081

Hourly Observations for May 21, 2015

Temp ( °F °C ) Dew Point ( °F °C ) Humidity (%) Winds ( mph kmh ) Pressure ( in mb ) Visibility ( mi km ) Precip ( " mm )
12:53 am 00:53 Clear 42 5.6 29 -1.7 60 60 NNE 3 6 30.08 1019 10 16 0.00 0.00
1:53 am 01:53 Clear 43 6.1 29 -1.7 58 58 Calm 30.06 1018 10 16 0.00 0.00
2:53 am 02:53 Clear 40 4.4 30 -1.1 68 68 ESE 3 6 30.06 1018 10 16 0.00 0.00
3:53 am 03:53 Clear 40 4.4 30 -1.1 68 68 SSE 9 15 30.06 1018 10 16 0.00 0.00
4:53 am 04:53 Clear 41 5 32 0 70 70 SSE 10 17 30.05 1018 10 16 0.00 0.00
5:53 am 05:53 Sunny 42 5.6 32 0 68 68 SE 8 13 30.05 1018 10 16 0.00 0.00
6:53 am 06:53 Sunny 45 7.2 34 1.1 66 66 S 7 11 30.05 1018 10 16 0.00 0.00
7:53 am 07:53 Sunny 48 8.9 34 1.1 58 58 SSW 3 6 30.04 1017 10 16 0.00 0.00
8:53 am 08:53 Sunny 52 11.1 36 2.2 55 55 VRB 3 6 30.04 1017 10 16 0.00 0.00
9:53 am 09:53 Sunny 57 13.9 38 3.3 49 49 E 3 6 30.04 1017 10 16 0.00 0.00
10:53 am 10:53 Sunny 60 15.6 38 3.3 44 44 SE 7 11 30.03 1017 10 16 0.00 0.00
11:53 am 11:53 Sunny 62 16.7 34 1.1 35 35 E 9 15 30.03 1017 10 16 0.00 0.00
12:53 pm 12:53 Sunny 63 17.2 34 1.1 34 34 VRB 5 7 30.02 1017 10 16 0.00 0.00
1:53 pm 13:53 Sunny 66 18.9 34 1.1 30 30 NNE 9 15 29.99 1016 10 16 0.00 0.00
2:53 pm 14:53 Sunny 68 20 36 2.2 31 31 NE 8 13 29.97 1015 10 16 0.00 0.00
3:53 pm 15:53 Sunny 69 20.6 37 2.8 31 31 E 6 9 29.94 1014 10 16 0.00 0.00
4:53 pm 16:53 Sunny 70 21.1 38 3.3 31 31 E 10 17 29.92 1013 10 16 0.00 0.00
5:53 pm 17:53 Mostly Sunny 69 20.6 38 3.3 32 32 SE 14 22 29.91 1013 10 16 0.00 0.00
6:53 pm 18:53 Sunny 69 20.6 38 3.3 32 32 E 14 22 29.90 1013 10 16 0.00 0.00
7:15 pm 19:15 Partly Cloudy 65 18.3 42 5.6 43 43 S 14 22 29.80 1009 10 16 0.00 0.00
7:53 pm 19:53 Sunny 63 17.2 43 6.1 48 48 SSW 9 15 29.91 1013 10 16 0.00 0.00
8:53 pm 20:53 Sunny 58 14.4 43 6.1 58 58 S 5 7 29.92 1013 10 16 0.00 0.00
9:53 pm 21:53 Clear 56 13.3 42 5.6 60 60 S 5 7 29.92 1013 10 16 0.00 0.00
10:53 pm 22:53 Clear 55 12.8 41 5 59 59 SSW 3 6 29.92 1013 10 16 0.00 0.00
11:53 pm 23:53 Clear 50 10 41 5 71 71 ENE 3 6 29.93 1014 10 16 0.00 0.00

Powered by AerisWeather